[[{"header":{"parameterUnit":"m.s-1","parameterCategory":1,"la1":30.2991,"la2":30.254,"lo1":-89.0895,"lo2":-89.0444,"dy":0.0017,"dx":0.0017,"nx":28,"ny":28,"refTime":"2025-04-05T21:00:00:Z","depth":0,"parameterNumber":2,"parameterNumberName":"U-component_of_WINDS"},"data":[0,0,0,0,0,0,0,0,0,0,0,0,0,0,0,0,0,0,0,0,0,0,0,0,0,0,0,0,0,0,0,0,0,0,0,0,0,0,0,0,0,0,0,0,0,0,0,0,0,0,0,0,0,0,0,0,0,0,4.2777,4.2775,0,4.2658,4.2657,4.2655,4.2513,4.251,4.2508,4.2506,4.2384,4.2383,4.2382,0,0,0,0,0,0,0,0,0,0,0,0,0,4.2879,4.2878,4.2777,4.2775,4.2774,4.2658,4.2657,4.2655,4.2513,4.251,4.2508,4.2505,4.2385,4.2383,4.2382,0,0,0,0,0,0,0,0,0,0,0,0,0,4.2805,4.2877,4.2777,4.2689,4.268,4.2659,4.2657,4.2655,4.2514,4.251,4.2507,4.2504,4.2385,4.2383,4.2382,4.2437,0,0,4.2376,4.2375,0,0,0,0,0,0,0,0,4.2809,4.2801,4.2703,4.2695,4.2685,4.2597,4.2648,4.2582,4.2514,4.2577,4.2506,4.2502,4.2458,4.245,4.2435,4.2431,4.2426,4.2376,4.2375,4.2374,4.2374,0,0,0,0,0,0,0,4.2815,4.2806,4.273,4.2702,4.2691,4.2655,4.2641,4.2635,4.2537,4.2571,4.256,4.2548,4.2452,4.2437,4.2431,4.2424,4.2376,4.2375,4.2373,4.2373,4.2459,4.2463,0,0,0,0,0,0,4.2833,4.2811,4.2733,4.2726,4.274,4.2656,4.264,4.2628,4.2537,4.252,4.2551,4.2542,4.2441,4.2433,4.2426,4.2484,4.2374,4.2373,4.2372,4.2456,4.246,4.2464,0,0,0,0,0,0,4.2836,4.2828,4.2738,4.2766,4.2751,4.2658,4.2646,4.2628,4.2612,4.2522,4.2504,4.2554,4.2438,4.2428,4.2435,4.2477,4.2372,4.237,4.2452,4.2457,4.2462,4.2601,0,0,0,0,0,0,4.2839,4.2829,4.285,4.2767,4.2751,4.275,4.2648,4.2628,4.261,4.2597,4.2519,4.2504,4.2435,4.2439,4.2433,4.2473,4.2369,4.2448,4.2454,4.246,4.2592,4.261,4.2625,0,0,0,0,0,4.2844,4.2894,4.2852,4.2843,4.2774,4.2753,4.2743,4.2664,4.2614,4.2633,4.2575,4.2506,4.2474,4.2441,4.2433,4.2473,4.2445,4.2453,4.246,4.2585,4.2606,4.2625,0,0,0,0,0,0,4.2984,4.2881,4.2833,4.2858,4.2816,4.2729,4.2751,4.269,4.266,4.2649,4.2551,4.2535,4.2553,4.2514,4.2478,4.2522,4.2449,4.2456,4.2546,4.2567,4.2583,4.2591,4.2367,0,0,0,0,0,4.3018,4.3009,4.292,4.2951,4.2932,4.2846,4.2833,4.2776,4.2727,4.2708,4.265,4.2606,4.2585,4.2574,4.255,4.2586,4.2566,4.261,4.2627,4.2641,4.2647,4.2662,4.268,4.2489,4.2489,4.2488,0,0,4.3088,4.3031,4.3031,4.2978,4.2937,4.293,4.2831,4.2828,4.2821,4.2707,4.271,4.2666,4.261,4.2631,4.2638,4.2599,4.2696,4.2651,4.2663,4.2661,4.2672,4.269,4.2706,4.2494,4.2493,4.2492,0,0,4.3211,4.3168,4.3187,4.3149,4.309,4.3032,4.3038,4.296,4.2927,4.2928,4.2842,4.2833,4.28,4.2763,4.274,4.2849,4.2784,4.2845,4.2931,4.2947,4.2962,4.2975,4.3012,4.3027,4.2851,4.2852,4.2852,0,4.3305,4.3291,4.3206,4.3208,4.3186,4.3083,4.3102,4.3069,4.3006,4.2993,4.2951,4.2907,4.2862,4.2872,4.2899,4.2885,4.2886,4.2852,4.2967,4.2979,4.2989,4.3024,4.3039,4.2859,4.2859,4.2858,4.2857,0,4.3409,4.3401,4.3424,4.3365,4.3346,4.3357,4.3273,4.3264,4.3209,4.3156,4.3158,4.31,4.3062,4.3061,4.3007,4.3064,4.3041,4.2985,4.2909,4.3017,4.3048,4.306,4.287,4.2868,4.2865,4.2863,0,0,4.3616,4.351,4.352,4.3491,4.3418,4.341,4.3416,4.3379,4.3373,4.3333,4.3335,4.331,4.3256,4.323,4.3171,4.3185,4.3274,4.3126,4.3123,4.3154,4.3332,4.3374,4.3391,4.3231,4.3233,4.3235,4.3336,0,4.3725,4.3729,4.3653,4.3678,4.3668,4.357,4.3575,4.3531,4.3482,4.3466,4.3411,4.3394,4.3326,4.331,4.3319,4.3261,4.3308,4.3253,4.323,4.3231,4.3246,4.3407,4.3452,4.355,4.3348,4.335,4.3351,0,4.3852,4.3819,4.3843,4.3768,4.3761,4.3768,4.3727,4.3714,4.3662,4.3625,4.3596,4.3528,4.3528,4.3459,4.3456,4.3421,4.3407,4.3377,4.3379,4.3373,4.3297,4.3404,4.3579,4.3594,4.337,4.3368,4.3367,0,4.3999,4.3961,4.3969,4.3948,4.3862,4.3868,4.3833,4.3777,4.3759,4.3724,4.3712,4.3678,4.3659,4.3634,4.3558,4.3515,4.3564,4.3489,4.3533,4.3535,4.3546,4.3546,4.3721,4.3541,4.3541,4.354,4.354,0,4.4128,4.4146,4.4034,4.404,4.4057,4.3969,4.3989,4.3944,4.3895,4.3889,4.3803,4.38,4.3701,4.3686,4.3627,4.3634,4.3626,4.3596,4.3579,4.3602,4.3606,4.3591,4.3582,4.3544,4.3543,4.3543,4.3542,0,4.4294,4.422,4.4224,4.4142,4.4121,4.4138,4.4067,4.4068,4.4014,4.4008,4.4002,4.3916,4.3894,4.3817,4.3776,4.3737,4.3761,4.3731,4.3779,4.3768,4.3816,4.3812,4.3986,4.4003,4.3814,4.3816,4.3818,0,4.438,4.4392,4.4311,4.4302,4.427,4.4255,4.4237,4.4151,4.4135,4.4076,4.4085,4.4056,4.4029,4.3999,4.3932,4.3901,4.3868,4.3931,4.3862,4.3885,4.3867,4.3867,4.3867,4.3945,4.3948,4.395,4.3952,0,4.454,4.4503,4.4481,4.4445,4.4426,4.4394,4.4357,4.4354,4.4258,4.4245,4.4222,4.42,4.4159,4.4131,4.4089,4.4051,4.3985,4.3974,4.3982,4.4005,4.4032,4.4016,4.3818,4.397,4.3968,4.3967,4.3966,4.3965,4.4668,4.4673,4.4617,4.4595,4.4558,4.4525,4.4522,4.4467,4.4447,4.4406,4.4357,4.434,4.4286,4.4222,4.4189,4.4174,4.4138,4.415,4.4153,4.4157,4.4168,4.4036,4.4166,4.4165,4.4165,4.4164,4.4164,0,4.4822,4.4781,4.4762,4.4712,4.4695,4.4635,4.4591,4.458,4.4566,4.4522,4.4496,4.4469,4.4442,4.4374,4.434,4.4341,4.431,4.4334,4.4333,4.4325,4.4202,4.4198,4.436,4.436,4.436,4.436,4.436,4.436,4.49,4.4906,4.4862,4.4849,4.4807,4.479,4.477,4.4739,4.4703,4.4677,4.4654,4.461,4.4555,4.4517,4.4489,4.4469,4.446,4.4495,4.4466,4.4352,4.4333,4.4316,4.4311,4.4494,4.4494,4.4588,4.4589,4.459]},{"header":{"parameterUnit":"m.s-1","parameterCategory":1,"la1":30.2991,"la2":30.254,"lo1":-89.0895,"lo2":-89.0444,"dy":0.0017,"dx":0.0017,"nx":28,"ny":28,"refTime":"2025-04-05T21:00:00:Z","depth":0,"parameterNumber":3,"parameterNumberName":"V-component_of_WINDS"},"data":[0,0,0,0,0,0,0,0,0,0,0,0,0,0,0,0,0,0,0,0,0,0,0,0,0,0,0,0,0,0,0,0,0,0,0,0,0,0,0,0,0,0,0,0,0,0,0,0,0,0,0,0,0,0,0,0,0,0,6.8412,6.842,0,6.9161,6.9169,6.9178,6.9399,6.9395,6.9392,6.9388,7.0151,7.0174,7.0197,0,0,0,0,0,0,0,0,0,0,0,0,0,6.7165,6.7187,6.8411,6.8421,6.843,6.9159,6.917,6.918,6.94,6.9395,6.9391,6.9386,7.0143,7.0171,7.02,0,0,0,0,0,0,0,0,0,0,0,0,0,6.7789,6.7194,6.841,6.8628,6.8655,6.9157,6.917,6.9183,6.9401,6.9395,6.9389,6.9384,7.0133,7.0168,7.0204,7.0542,0,0,7.0313,7.0329,0,0,0,0,0,0,0,0,6.7753,6.7834,6.8587,6.8614,6.8645,6.9181,6.901,6.9638,6.9402,6.9118,6.9388,6.9381,6.9832,6.9892,7.0046,7.0577,7.061,7.0316,7.0338,7.0354,7.0364,0,0,0,0,0,0,0,6.771,6.7803,6.8708,6.8597,6.8633,6.8686,6.8768,6.913,6.9498,6.9142,6.916,6.9246,6.9847,7.001,7.0065,7.0621,7.0315,7.0347,7.0369,7.0383,7.1465,7.1472,0,0,0,0,0,0,6.763,6.7766,6.8684,6.873,6.8176,6.8713,6.8805,6.9015,6.9495,6.9563,6.925,6.9253,6.9952,7.0023,7.0093,7.0521,7.0353,7.0387,7.0407,7.1458,7.1467,7.1475,0,0,0,0,0,0,6.7603,6.771,6.8654,6.8254,6.8378,6.8741,6.8974,6.9032,6.9197,6.9577,6.9643,6.935,6.995,7.0042,7.0428,7.055,7.0403,7.0436,7.145,7.1461,7.1471,7.1377,0,0,0,0,0,0,6.7566,6.7699,6.7833,6.8255,6.8398,6.8979,6.8982,6.9051,6.9258,6.927,6.9688,6.9752,6.9953,7.0373,7.0464,7.0597,7.0464,7.144,7.1455,7.1467,7.1371,7.1383,7.1394,0,0,0,0,0,6.7521,6.7776,6.7839,6.7948,6.8574,6.8985,6.9067,6.9295,6.9267,6.9404,6.9647,6.9738,7.052,7.0411,7.0515,7.066,7.1434,7.1451,7.1466,7.1366,7.1381,7.1394,0,0,0,0,0,0,6.7359,6.7836,6.791,6.8311,6.8606,6.9022,6.9202,6.9304,6.9612,6.961,6.9877,6.997,7.0336,7.0537,7.0406,7.1011,7.098,7.1017,7.0868,7.0886,7.0897,7.0842,7.0494,0,0,0,0,0,6.7369,6.7666,6.8066,6.838,6.8524,6.8836,6.9024,6.9174,6.949,6.9616,6.9888,7.0189,7.0504,7.0705,7.1015,7.1399,7.1493,7.155,7.1561,7.1568,7.1599,7.1816,7.1846,7.1528,7.1528,7.1527,0,0,6.7395,6.7692,6.7863,6.8355,6.8602,6.89,6.8941,6.9256,6.948,6.9664,7.0046,7.0254,7.0608,7.0994,7.1178,7.1173,7.1707,7.1589,7.1592,7.162,7.1835,7.1865,7.1891,7.1539,7.1537,7.1535,0,0,6.7595,6.785,6.814,6.8385,6.8758,6.8964,6.9031,6.9433,6.958,6.9967,7.011,7.0378,7.0914,7.116,7.1355,7.1642,7.1737,7.1735,7.1797,7.2005,7.203,7.2053,7.2156,7.219,7.1763,7.1763,7.1763,0,6.758,6.8039,6.8275,6.8584,6.8795,6.8974,6.9268,6.9494,6.9948,7.0088,7.0075,7.075,7.1001,7.1446,7.1516,7.1667,7.1753,7.1691,7.2007,7.2033,7.2059,7.216,7.2198,7.1761,7.1761,7.1761,7.1762,0,6.8002,6.8316,6.8505,6.894,6.9172,6.9471,6.975,6.9956,7.0082,7.0288,7.0678,7.0984,7.1359,7.1475,7.1602,7.1938,7.1923,7.1955,7.193,7.2082,7.2182,7.2223,7.1757,7.1758,7.1759,7.1759,0,0,6.8126,6.8685,6.8751,6.8949,6.9371,6.9619,6.9922,7.029,7.0461,7.0765,7.1028,7.1474,7.1506,7.1726,7.1882,7.2064,7.2271,7.2075,7.2087,7.2101,7.266,7.2635,7.2676,7.2335,7.2343,7.235,7.263,0,6.8381,6.8938,6.9157,6.9608,6.9901,7.0072,7.0338,7.0623,7.0822,7.1097,7.1315,7.1628,7.1646,7.178,7.1967,7.2206,7.2387,7.2189,7.2581,7.2592,7.249,7.2729,7.2705,7.2955,7.2671,7.2677,7.2682,0,6.8756,6.9065,6.9544,6.9929,7.006,7.0295,7.0648,7.0909,7.1234,7.1366,7.1609,7.1754,7.2077,7.2026,7.2475,7.2334,7.2506,7.2647,7.2662,7.271,7.2648,7.2784,7.3041,7.3078,7.2746,7.2741,7.2736,0,6.8799,6.9335,6.9692,6.9856,7.0312,7.0473,7.067,7.0991,7.1196,7.1502,7.1638,7.1977,7.2163,7.242,7.2651,7.2593,7.3077,7.3046,7.3194,7.3189,7.3292,7.3283,7.3581,7.3397,7.3397,7.3396,7.3395,0,6.9063,6.935,6.9717,6.9937,7.0262,7.0509,7.0823,7.1032,7.1314,7.1575,7.1742,7.1982,7.2271,7.2547,7.2729,7.3072,7.3154,7.3268,7.3313,7.3256,7.3241,7.3374,7.3364,7.3406,7.3404,7.3402,7.34,0,6.9169,6.9427,6.9827,7.0225,7.0332,7.0554,7.0894,7.1112,7.1315,7.1643,7.1734,7.2054,7.2388,7.2642,7.3075,7.3197,7.3561,7.3608,7.3452,7.3476,7.361,7.3594,7.4007,7.4074,7.3841,7.3843,7.3844,0,6.9323,6.9548,6.997,7.0157,7.0354,7.0653,7.0864,7.1113,7.1325,7.171,7.1881,7.2226,7.2517,7.3041,7.3311,7.3642,7.37,7.3821,7.3751,7.3685,7.3704,7.3688,7.3712,7.3831,7.3832,7.3834,7.3834,0,6.9567,6.9683,6.9981,7.0324,7.057,7.0851,7.1135,7.1278,7.1577,7.1806,7.2151,7.2375,7.2817,7.3157,7.3515,7.3715,7.3825,7.3853,7.3906,7.3851,7.3751,7.3808,7.348,7.3844,7.3843,7.3842,7.3842,7.3842,6.9705,6.9912,7.0241,7.0567,7.0806,7.1067,7.1291,7.1522,7.1814,7.2195,7.2322,7.2676,7.2993,7.3485,7.3688,7.3967,7.3969,7.4044,7.4064,7.4079,7.4075,7.3703,7.4032,7.4032,7.4032,7.4032,7.4032,0,6.9959,7.0178,7.0475,7.0868,7.1123,7.1202,7.152,7.1727,7.2038,7.2324,7.2606,7.2999,7.3329,7.3623,7.3965,7.4132,7.419,7.4213,7.4205,7.425,7.4053,7.3974,7.416,7.416,7.416,7.416,7.416,7.416,7.0122,7.0477,7.063,7.1104,7.1322,7.1672,7.1846,7.2086,7.2316,7.2749,7.3024,7.3213,7.3502,7.3866,7.4171,7.4249,7.4368,7.4378,7.4468,7.4279,7.4263,7.4248,7.4176,7.4402,7.4402,7.4643,7.4645,7.4647]}]]